[[{"header":{"parameterUnit":"m.s-1","parameterCategory":1,"la1":30.2991,"la2":30.254,"lo1":-89.0895,"lo2":-89.0444,"dy":0.0017,"dx":0.0017,"nx":28,"ny":28,"refTime":"2024-08-21T09:00:00:Z","depth":0,"parameterNumber":2,"parameterNumberName":"U-component_of_WINDS"},"data":[0,0,0,0,0,0,0,0,0,0,0,0,0,0,0,0,0,0,0,0,0,0,0,0,0,0,0,0,0,0,0,0,0,0,0,0,0,0,0,0,0,0,0,0,0,0,0,0,0,0,0,0,0,0,0,0,0,0,-1.7294,-1.7293,0,-1.7248,-1.7248,-1.7247,-1.7103,-1.71,-1.7097,-1.7094,-1.7051,-1.7053,-1.7055,0,0,0,0,0,0,0,0,0,0,0,0,0,-1.7259,-1.7261,-1.7294,-1.7293,-1.7293,-1.7249,-1.7248,-1.7247,-1.7104,-1.71,-1.7096,-1.7092,-1.7051,-1.7053,-1.7055,0,0,0,0,0,0,0,0,0,0,0,0,0,-1.725,-1.7261,-1.7294,-1.7216,-1.7208,-1.7249,-1.7248,-1.7247,-1.7105,-1.71,-1.7095,-1.709,-1.705,-1.7053,-1.7055,-1.7169,0,0,-1.7064,-1.7065,0,0,0,0,0,0,0,0,-1.7251,-1.7252,-1.7228,-1.7221,-1.7213,-1.7176,-1.722,-1.7221,-1.7106,-1.7144,-1.7094,-1.7088,-1.7097,-1.7096,-1.7098,-1.7167,-1.7165,-1.7064,-1.7066,-1.7067,-1.7068,0,0,0,0,0,0,0,-1.7252,-1.7253,-1.7276,-1.7228,-1.7219,-1.7184,-1.7177,-1.7219,-1.7148,-1.714,-1.713,-1.7126,-1.7092,-1.7095,-1.7096,-1.7165,-1.7064,-1.7066,-1.7068,-1.7069,-1.7323,-1.7328,0,0,0,0,0,0,-1.7263,-1.7254,-1.7277,-1.7275,-1.722,-1.7188,-1.7181,-1.7193,-1.7147,-1.7136,-1.713,-1.712,-1.7093,-1.7093,-1.7094,-1.7222,-1.7067,-1.707,-1.7071,-1.7318,-1.7324,-1.733,0,0,0,0,0,0,-1.7263,-1.7267,-1.7279,-1.7262,-1.726,-1.7194,-1.7209,-1.7195,-1.7198,-1.714,-1.7127,-1.7147,-1.7089,-1.709,-1.7151,-1.7219,-1.7071,-1.7073,-1.7312,-1.732,-1.7327,-1.7482,0,0,0,0,0,0,-1.7263,-1.7267,-1.7309,-1.7264,-1.7262,-1.7337,-1.7213,-1.7197,-1.7203,-1.7188,-1.7152,-1.7141,-1.7085,-1.7147,-1.7154,-1.722,-1.7076,-1.7306,-1.7316,-1.7325,-1.747,-1.7494,-1.7514,0,0,0,0,0,-1.7262,-1.7356,-1.7312,-1.7316,-1.7313,-1.7341,-1.734,-1.7273,-1.7209,-1.7251,-1.7213,-1.7142,-1.7211,-1.7155,-1.716,-1.7229,-1.7301,-1.7313,-1.7324,-1.7461,-1.7489,-1.7513,0,0,0,0,0,0,-1.7414,-1.7349,-1.7299,-1.7381,-1.7368,-1.7316,-1.7367,-1.7306,-1.7311,-1.7298,-1.7216,-1.7209,-1.7281,-1.7261,-1.72,-1.7336,-1.7244,-1.7257,-1.7346,-1.7373,-1.7394,-1.7397,-1.7078,0,0,0,0,0,-1.7456,-1.7483,-1.7426,-1.7504,-1.7499,-1.7435,-1.7445,-1.7394,-1.7377,-1.7371,-1.7337,-1.7325,-1.7343,-1.7357,-1.7371,-1.7467,-1.7456,-1.7517,-1.7539,-1.7557,-1.7569,-1.7617,-1.7643,-1.7367,-1.7367,-1.7367,0,0,-1.7545,-1.7513,-1.7536,-1.7533,-1.7516,-1.7547,-1.7431,-1.7468,-1.749,-1.7377,-1.7431,-1.7407,-1.7387,-1.7466,-1.7499,-1.7451,-1.7643,-1.7571,-1.7586,-1.7588,-1.7631,-1.7658,-1.7681,-1.7375,-1.7373,-1.7372,0,0,-1.7722,-1.7701,-1.7763,-1.7748,-1.7723,-1.768,-1.7695,-1.7653,-1.7632,-1.7685,-1.76,-1.7626,-1.7659,-1.7648,-1.7647,-1.7819,-1.7754,-1.7826,-1.7939,-1.7987,-1.8009,-1.8028,-1.8088,-1.8111,-1.7838,-1.7839,-1.7839,0,-1.7836,-1.7877,-1.7803,-1.7845,-1.7846,-1.7743,-1.7805,-1.7795,-1.7777,-1.7781,-1.7728,-1.7766,-1.7746,-1.782,-1.7862,-1.7865,-1.7879,-1.7829,-1.8012,-1.803,-1.8046,-1.8103,-1.8126,-1.7848,-1.7847,-1.7846,-1.7845,0,-1.8018,-1.8048,-1.8101,-1.8084,-1.8091,-1.8144,-1.8077,-1.8094,-1.8043,-1.8005,-1.8061,-1.8033,-1.8038,-1.8052,-1.8004,-1.8119,-1.809,-1.8026,-1.7932,-1.8083,-1.8134,-1.8155,-1.786,-1.7857,-1.7854,-1.7852,0,0,-1.8289,-1.8229,-1.825,-1.824,-1.8205,-1.8227,-1.8275,-1.8279,-1.8294,-1.8286,-1.8323,-1.8354,-1.8293,-1.8292,-1.8241,-1.8284,-1.842,-1.8213,-1.8212,-1.8252,-1.8545,-1.8592,-1.8619,-1.8377,-1.8381,-1.8384,-1.8546,0,-1.8456,-1.8532,-1.8465,-1.8554,-1.858,-1.8483,-1.8524,-1.8508,-1.8474,-1.8492,-1.8455,-1.8478,-1.8397,-1.8395,-1.8433,-1.8396,-1.8478,-1.8383,-1.8411,-1.8413,-1.8418,-1.8646,-1.8696,-1.885,-1.8566,-1.8569,-1.8572,0,-1.866,-1.8658,-1.8749,-1.8707,-1.8715,-1.8754,-1.8751,-1.877,-1.8749,-1.8721,-1.872,-1.8657,-1.8701,-1.861,-1.867,-1.8607,-1.8615,-1.8598,-1.8603,-1.8602,-1.8501,-1.865,-1.8898,-1.8921,-1.8603,-1.86,-1.8598,0,-1.8847,-1.8868,-1.8924,-1.8919,-1.8872,-1.8901,-1.8883,-1.8857,-1.8863,-1.8862,-1.8865,-1.887,-1.8872,-1.8877,-1.8818,-1.8757,-1.8885,-1.8789,-1.8863,-1.8865,-1.8893,-1.8892,-1.9145,-1.8901,-1.8901,-1.89,-1.89,0,-1.9039,-1.9098,-1.9007,-1.9042,-1.9105,-1.9029,-1.9094,-1.9066,-1.9044,-1.9072,-1.899,-1.9018,-1.8938,-1.8958,-1.8913,-1.8968,-1.8971,-1.8949,-1.8936,-1.8956,-1.8959,-1.8959,-1.8946,-1.8906,-1.8905,-1.8904,-1.8903,0,-1.9257,-1.9199,-1.9254,-1.9204,-1.9193,-1.9242,-1.9199,-1.9229,-1.919,-1.9227,-1.9231,-1.917,-1.9189,-1.913,-1.9141,-1.911,-1.9191,-1.9161,-1.9197,-1.9188,-1.9264,-1.9257,-1.9525,-1.9556,-1.9295,-1.9297,-1.9299,0,-1.9383,-1.9426,-1.938,-1.9391,-1.9377,-1.9398,-1.9403,-1.933,-1.9339,-1.9319,-1.9352,-1.9364,-1.937,-1.9406,-1.9363,-1.9371,-1.9339,-1.9433,-1.934,-1.9358,-1.9339,-1.9336,-1.934,-1.9452,-1.9455,-1.9458,-1.946,0,-1.9611,-1.958,-1.9589,-1.9589,-1.9597,-1.9594,-1.9585,-1.96,-1.9522,-1.9537,-1.9555,-1.9559,-1.9569,-1.9582,-1.9581,-1.9563,-1.9499,-1.9489,-1.9507,-1.9526,-1.9545,-1.9534,-1.9248,-1.9483,-1.9481,-1.9479,-1.9478,-1.9477,-1.9785,-1.9818,-1.979,-1.9804,-1.9789,-1.9783,-1.9808,-1.9771,-1.9784,-1.9785,-1.9742,-1.9769,-1.9747,-1.9738,-1.9727,-1.9747,-1.9704,-1.9729,-1.9735,-1.9742,-1.9755,-1.9543,-1.9747,-1.9746,-1.9745,-1.9745,-1.9744,0,-2.0008,-1.9985,-1.9998,-1.9987,-1.9998,-1.9935,-1.9922,-1.9936,-1.9959,-1.9944,-1.995,-1.9971,-1.9983,-1.9941,-1.9948,-1.9972,-1.9943,-1.9976,-1.9973,-1.9969,-1.9794,-1.9777,-1.9999,-1.9999,-1.9999,-1.9999,-1.9999,-1.9999,-2.0124,-2.0176,-2.0141,-2.0185,-2.0162,-2.0186,-2.0183,-2.0177,-2.0164,-2.019,-2.0199,-2.0171,-2.0145,-2.0148,-2.0157,-2.0144,-2.015,-2.0193,-2.0171,-2.0007,-1.9982,-1.9958,-1.9942,-2.0195,-2.0196,-2.0344,-2.0345,-2.0346]},{"header":{"parameterUnit":"m.s-1","parameterCategory":1,"la1":30.2991,"la2":30.254,"lo1":-89.0895,"lo2":-89.0444,"dy":0.0017,"dx":0.0017,"nx":28,"ny":28,"refTime":"2024-08-21T09:00:00:Z","depth":0,"parameterNumber":3,"parameterNumberName":"V-component_of_WINDS"},"data":[0,0,0,0,0,0,0,0,0,0,0,0,0,0,0,0,0,0,0,0,0,0,0,0,0,0,0,0,0,0,0,0,0,0,0,0,0,0,0,0,0,0,0,0,0,0,0,0,0,0,0,0,0,0,0,0,0,0,-1.8013,-1.8015,0,-1.8128,-1.8129,-1.813,-1.8181,-1.8181,-1.8181,-1.818,-1.8297,-1.83,-1.8304,0,0,0,0,0,0,0,0,0,0,0,0,0,-1.7837,-1.784,-1.8013,-1.8015,-1.8016,-1.8128,-1.8129,-1.8131,-1.8181,-1.8181,-1.8181,-1.818,-1.8296,-1.83,-1.8304,0,0,0,0,0,0,0,0,0,0,0,0,0,-1.7929,-1.7841,-1.8013,-1.8055,-1.8059,-1.8127,-1.8129,-1.8131,-1.8181,-1.8181,-1.8181,-1.818,-1.8295,-1.83,-1.8304,-1.8339,0,0,-1.8319,-1.8321,0,0,0,0,0,0,0,0,-1.7923,-1.7935,-1.8047,-1.8052,-1.8057,-1.814,-1.811,-1.8201,-1.8181,-1.8135,-1.818,-1.818,-1.8245,-1.8254,-1.8276,-1.8345,-1.835,-1.832,-1.8323,-1.8325,-1.8326,0,0,0,0,0,0,0,-1.7917,-1.793,-1.8059,-1.8049,-1.8055,-1.8067,-1.808,-1.8127,-1.819,-1.8139,-1.8143,-1.8156,-1.8248,-1.8271,-1.8279,-1.8351,-1.832,-1.8324,-1.8327,-1.8329,-1.8454,-1.8454,0,0,0,0,0,0,-1.7904,-1.7925,-1.8055,-1.8062,-1.7988,-1.8071,-1.8085,-1.8114,-1.8189,-1.8201,-1.8156,-1.8158,-1.8263,-1.8273,-1.8283,-1.8329,-1.8325,-1.8329,-1.8332,-1.8453,-1.8454,-1.8454,0,0,0,0,0,0,-1.79,-1.7915,-1.805,-1.7995,-1.8013,-1.8074,-1.8106,-1.8116,-1.8139,-1.8202,-1.8214,-1.8168,-1.8263,-1.8276,-1.8325,-1.8334,-1.8332,-1.8336,-1.8453,-1.8454,-1.8454,-1.842,0,0,0,0,0,0,-1.7895,-1.7913,-1.7928,-1.7994,-1.8015,-1.809,-1.8106,-1.8118,-1.8148,-1.8151,-1.8217,-1.8228,-1.8264,-1.8317,-1.833,-1.834,-1.834,-1.8452,-1.8453,-1.8454,-1.8421,-1.8419,-1.8418,0,0,0,0,0,-1.7888,-1.7913,-1.7928,-1.7943,-1.8035,-1.8091,-1.8103,-1.8144,-1.8148,-1.8163,-1.8203,-1.8225,-1.833,-1.8322,-1.8336,-1.8348,-1.8452,-1.8453,-1.8454,-1.8421,-1.842,-1.8418,0,0,0,0,0,0,-1.7846,-1.7923,-1.794,-1.7988,-1.8032,-1.8099,-1.8119,-1.8141,-1.8185,-1.8187,-1.8236,-1.8251,-1.8294,-1.8326,-1.8315,-1.8386,-1.8393,-1.8397,-1.8363,-1.8363,-1.8361,-1.8353,-1.8344,0,0,0,0,0,-1.7842,-1.7882,-1.7947,-1.7982,-1.8004,-1.8057,-1.8083,-1.8111,-1.8159,-1.8178,-1.8222,-1.8268,-1.8311,-1.8338,-1.8382,-1.8425,-1.844,-1.8441,-1.8439,-1.8438,-1.8441,-1.8466,-1.8467,-1.8457,-1.8457,-1.8457,0,0,-1.7835,-1.7882,-1.7904,-1.7975,-1.8013,-1.8052,-1.8073,-1.8114,-1.8143,-1.8185,-1.8233,-1.8266,-1.832,-1.8366,-1.8389,-1.8394,-1.8447,-1.8439,-1.8438,-1.8442,-1.8467,-1.8468,-1.8468,-1.8458,-1.8458,-1.8458,0,0,-1.7842,-1.7881,-1.7915,-1.7953,-1.8009,-1.8044,-1.8052,-1.8116,-1.814,-1.8189,-1.822,-1.8256,-1.833,-1.8367,-1.8395,-1.8415,-1.8437,-1.8427,-1.8421,-1.8445,-1.8446,-1.8447,-1.8453,-1.8455,-1.843,-1.843,-1.843,0,-1.7826,-1.7886,-1.793,-1.7969,-1.7999,-1.8038,-1.8072,-1.8106,-1.8174,-1.8194,-1.8199,-1.8292,-1.8331,-1.8386,-1.839,-1.8412,-1.8423,-1.842,-1.8442,-1.8443,-1.8445,-1.8452,-1.8454,-1.8428,-1.8428,-1.8428,-1.8429,0,-1.7863,-1.7905,-1.7925,-1.799,-1.8022,-1.8059,-1.8107,-1.8135,-1.8159,-1.8194,-1.8243,-1.8291,-1.8345,-1.836,-1.8384,-1.8418,-1.8419,-1.8432,-1.8441,-1.8444,-1.8451,-1.8454,-1.8426,-1.8426,-1.8427,-1.8427,0,0,-1.7848,-1.7935,-1.7942,-1.7971,-1.8036,-1.8069,-1.8107,-1.8159,-1.8181,-1.8226,-1.8259,-1.832,-1.8332,-1.8365,-1.8394,-1.8414,-1.8426,-1.8425,-1.8427,-1.8424,-1.8466,-1.8456,-1.8458,-1.8441,-1.8442,-1.8442,-1.8461,0,-1.7864,-1.7933,-1.7973,-1.8026,-1.8064,-1.8101,-1.8134,-1.8177,-1.821,-1.8247,-1.8284,-1.8326,-1.8339,-1.8359,-1.8381,-1.842,-1.8436,-1.8419,-1.8472,-1.8473,-1.8458,-1.8462,-1.8452,-1.8467,-1.8465,-1.8465,-1.8465,0,-1.7891,-1.7936,-1.7992,-1.8052,-1.807,-1.8099,-1.8149,-1.8184,-1.8234,-1.8256,-1.8291,-1.832,-1.8361,-1.8366,-1.8423,-1.8411,-1.8435,-1.8457,-1.8459,-1.8465,-1.847,-1.8469,-1.8473,-1.8476,-1.847,-1.847,-1.847,0,-1.7874,-1.7948,-1.7991,-1.8015,-1.8086,-1.8105,-1.8136,-1.8185,-1.8213,-1.8258,-1.8277,-1.8325,-1.8351,-1.8388,-1.8429,-1.8428,-1.8481,-1.8489,-1.8501,-1.85,-1.8511,-1.8509,-1.8519,-1.8525,-1.8525,-1.8525,-1.8525,0,-1.7888,-1.7921,-1.7984,-1.8011,-1.8049,-1.8094,-1.813,-1.8164,-1.8207,-1.824,-1.8275,-1.8306,-1.8358,-1.8395,-1.8427,-1.8469,-1.8481,-1.85,-1.8508,-1.8497,-1.8495,-1.8514,-1.8514,-1.8526,-1.8526,-1.8526,-1.8526,0,-1.7875,-1.7919,-1.7968,-1.8031,-1.8048,-1.8073,-1.8127,-1.8154,-1.8188,-1.823,-1.8242,-1.8296,-1.8341,-1.8386,-1.8447,-1.8468,-1.851,-1.8521,-1.8493,-1.8498,-1.8507,-1.8505,-1.8529,-1.8534,-1.8536,-1.8536,-1.8536,0,-1.7881,-1.7907,-1.7972,-1.7997,-1.8027,-1.8067,-1.8096,-1.8141,-1.817,-1.8227,-1.8247,-1.8295,-1.8336,-1.8406,-1.8451,-1.8497,-1.851,-1.8515,-1.8517,-1.8505,-1.851,-1.8508,-1.8511,-1.8514,-1.8513,-1.8513,-1.8513,0,-1.7886,-1.7906,-1.7947,-1.7995,-1.8029,-1.8069,-1.8111,-1.8129,-1.8182,-1.8212,-1.8259,-1.829,-1.8352,-1.8399,-1.8451,-1.8482,-1.8506,-1.8512,-1.8517,-1.8506,-1.8489,-1.8498,-1.849,-1.8511,-1.8511,-1.8512,-1.8512,-1.8512,-1.7883,-1.7908,-1.7958,-1.8002,-1.8037,-1.8075,-1.8103,-1.8141,-1.8181,-1.8235,-1.8258,-1.8305,-1.8353,-1.8425,-1.8456,-1.8493,-1.8499,-1.8507,-1.8509,-1.851,-1.8507,-1.8482,-1.8503,-1.8503,-1.8503,-1.8503,-1.8503,0,-1.7891,-1.7924,-1.7964,-1.8021,-1.8055,-1.8074,-1.8121,-1.8148,-1.8189,-1.8232,-1.8271,-1.8324,-1.837,-1.8417,-1.8466,-1.8486,-1.8499,-1.8497,-1.8497,-1.8503,-1.8499,-1.849,-1.8487,-1.8487,-1.8487,-1.8487,-1.8487,-1.8487,-1.7898,-1.7941,-1.7967,-1.8028,-1.8062,-1.8108,-1.8132,-1.8167,-1.8202,-1.8259,-1.8297,-1.8328,-1.8373,-1.8424,-1.8467,-1.848,-1.8496,-1.8491,-1.8507,-1.8503,-1.8504,-1.8505,-1.8496,-1.8495,-1.8495,-1.8509,-1.8509,-1.8509]}]]